Weather History for Houma, LA

Change the Weather History Date:

Saturday, October 26, 2013

  Actual Average Record
Temperature  
Mean Temperature 62 °F -  
Max Temperature 78 °F 77 °F 89 °F (1939)
Min Temperature 45 °F 54 °F 38 °F (1943)
Degree Days  
Heating Degree Days 4    
Growing Degree Days 12 (Base 50)    
Moisture  
Dew Point 48 °F    
Average Humidity 76    
Maximum Humidity 93    
Minimum Humidity 32    
Precipitation  
Precipitation 0.00 in - - ()
Sea Level Pressure  
Sea Level Pressure 30.23 in    
Wind  
Wind Speed 3 mph (ENE)    
Max Wind Speed 9 mph    
Max Gust Speed -    
Visibility 8 miles    
Events Fog    
Averages and records for this station are not official NWS values.
T = Trace of Precipitation, MM = Missing Value Source: NWS Daily Summary

Daily Weather History Graph

Daily Weather History Graph

Search for Another Location

Airport:

Trip Planner

Search our weather history database for the weather conditions in past years. The results will help you decide how hot, cold, wet, or windy it might be!

Date:

Astronomy

Oct. 26, 2013 Rise Set
Actual Time 7:11 AM CDT 6:20 PM CDT
Civil Twilight 6:47 AM CDT 6:45 PM CDT
Nautical Twilight 6:19 AM CDT 7:13 PM CDT
Astronomical Twilight 5:51 AM CDT 7:41 PM CDT
Moon No Moon Rise 1:24 PM CDT (10/26)
Length of Visible Light 11h 57m
Length of Day
11h 09m
Waning Gibbous, 53% of the Moon is Illuminated
Oct 26
Waning Gibbous
Oct 26
Last Quarter
Nov 3
New
Nov 9
First Quarter
Nov 17
Full

Hourly Weather History & Observations

Time (CDT) Temp. Dew Point Humidity Pressure Visibility Wind Dir Wind Speed Gust Speed Precip Events Conditions
12:15 AM 52.9 °F 44.8 °F 74% 30.29 in 10.0 mi NE 4.6 mph - N/A   Clear
12:35 AM 52.9 °F 44.6 °F 73% 30.29 in 7.0 mi NE 4.6 mph - N/A   Clear
12:55 AM 52.7 °F 44.1 °F 72% 30.28 in 10.0 mi NE 5.8 mph - N/A   Clear
1:15 AM 52.7 °F 44.2 °F 73% 30.27 in 7.0 mi ENE 4.6 mph - N/A   Clear
1:35 AM 51.4 °F 44.2 °F 76% 30.27 in 10.0 mi NE 4.6 mph - N/A   Clear
1:55 AM 51.1 °F 44.6 °F 78% 30.27 in 7.0 mi ENE 3.5 mph - N/A   Clear
2:15 AM 50.2 °F 44.4 °F 81% 30.26 in 7.0 mi NE 3.5 mph - N/A   Clear
2:35 AM 50.7 °F 44.1 °F 78% 30.26 in 10.0 mi NE 3.5 mph - N/A   Clear
2:55 AM 50.7 °F 44.1 °F 78% 30.25 in 7.0 mi NE 3.5 mph - N/A   Clear
3:15 AM 50.5 °F 44.2 °F 79% 30.25 in 7.0 mi NE 3.5 mph - N/A   Clear
3:35 AM 49.3 °F 44.6 °F 84% 30.25 in 10.0 mi NNE 4.6 mph - N/A   Clear
3:55 AM 48.2 °F 44.4 °F 87% 30.24 in 7.0 mi North 4.6 mph - N/A   Clear
4:15 AM 48.4 °F 44.8 °F 87% 30.24 in 7.0 mi NNE 3.5 mph - N/A   Clear
4:35 AM 49.8 °F 45.0 °F 83% 30.24 in 7.0 mi NNE 4.6 mph - N/A   Clear
4:55 AM 49.8 °F 44.6 °F 82% 30.25 in 10.0 mi NE 3.5 mph - N/A   Clear
5:15 AM 46.9 °F 43.3 °F 87% 30.25 in 10.0 mi Calm Calm - N/A   Clear
5:35 AM 46.0 °F 42.8 °F 88% 30.25 in 10.0 mi Calm Calm - N/A   Clear
5:50 AM 46.4 °F 42.8 °F 87% 30.27 in 7.0 mi Calm Calm - N/A   Clear
5:55 AM 45.9 °F 43.0 °F 90% 30.26 in 10.0 mi Calm Calm - N/A   Clear
6:50 AM 46.4 °F 44.6 °F 93% 30.27 in 7.0 mi Calm Calm - N/A   Clear
7:50 AM 50.0 °F 46.4 °F 87% 30.28 in 7.0 mi Calm Calm - N/A   Clear
8:50 AM 57.2 °F 48.2 °F 72% 30.28 in 7.0 mi NE 5.8 mph - N/A   Clear
9:55 AM 64.4 °F 51.8 °F 64% 30.29 in 7.0 mi NE 9.2 mph - N/A   Clear
10:50 AM 69.8 °F 51.8 °F 53% 30.29 in 7.0 mi ENE 9.2 mph - N/A   Clear
11:50 AM 73.4 °F 48.2 °F 41% 30.27 in 7.0 mi East 4.6 mph - N/A   Clear
12:55 PM 75.2 °F 46.4 °F 36% 30.24 in 7.0 mi East 4.6 mph - N/A   Clear
1:50 PM 78.8 °F 46.4 °F 32% 30.22 in 7.0 mi ESE 4.6 mph - N/A   Clear
2:50 PM 78.8 °F 48.2 °F 34% 30.20 in 7.0 mi SSE 6.9 mph - N/A   Clear
3:50 PM 78.8 °F 48.2 °F 34% 30.20 in 7.0 mi SSE 6.9 mph - N/A   Clear
4:50 PM 75.2 °F 48.2 °F 38% 30.19 in 7.0 mi South 4.6 mph - N/A   Clear
5:50 PM 69.8 °F 53.6 °F 56% 30.19 in 7.0 mi SSE 3.5 mph - N/A   Clear
6:50 PM 62.6 °F 55.4 °F 77% 30.19 in 7.0 mi SSE 3.5 mph - N/A   Clear
7:15 PM 57.4 °F 53.4 °F 87% 30.18 in 10.0 mi Calm Calm - N/A   Clear
7:35 PM 56.7 °F 52.7 °F 87% 30.18 in 10.0 mi Calm Calm - N/A   Clear
7:55 PM 56.5 °F 53.1 °F 88% 30.18 in 10.0 mi Calm Calm - N/A   Clear
8:15 PM 55.4 °F 52.0 °F 88% 30.18 in 10.0 mi Calm Calm - N/A   Clear
8:35 PM 54.9 °F 51.6 °F 89% 30.19 in 10.0 mi Calm Calm - N/A   Clear
8:55 PM 54.5 °F 51.3 °F 89% 30.19 in 10.0 mi Calm Calm - N/A   Clear
9:15 PM 53.6 °F 50.4 °F 89% 30.18 in 10.0 mi Calm Calm - N/A   Clear
9:35 PM 53.8 °F 50.7 °F 89% 30.18 in 10.0 mi Calm Calm - N/A   Clear
9:55 PM 52.9 °F 49.8 °F 89% 30.18 in 10.0 mi Calm Calm - N/A   Clear
10:15 PM 52.7 °F 49.5 °F 89% 30.18 in 10.0 mi Calm Calm - N/A   Clear
10:35 PM 52.3 °F 49.3 °F 89% 30.18 in 10.0 mi Calm Calm - N/A   Clear
10:55 PM 52.7 °F 49.8 °F 90% 30.18 in 10.0 mi Calm Calm - N/A   Clear
11:15 PM 51.8 °F 48.7 °F 89% 30.17 in 10.0 mi Calm Calm - N/A   Clear
11:35 PM 51.6 °F 48.6 °F 89% 30.17 in 5.0 mi Calm Calm - N/A   Clear
11:55 PM 52.0 °F 49.3 °F 90% 30.16 in 0.5 mi Calm Calm - N/A Fog Fog